Location: Bletchingley
(51.2333°N, 0.1000°W)
Time: 00:35:19
(UTC+00:00)

DMSP B5D2-2 - Visible Passes

Search period start: 24 January 2021 00:00
Search period end: 03 February 2021 00:00
Orbit: 790 x 805 km, 98.3° (Epoch: 23 January)

Date Brightness Start Highest point End Pass type
(mag) Time Alt. Az. Time Alt. Az. Time Alt. Az.
24 Jan 6.4 05:00:09 10° ESE 05:04:03 22° ENE 05:07:58 10° N visible
24 Jan 4.1 06:37:56 10° S 06:43:12 76° WSW 06:48:31 10° NNW visible
25 Jan 6.8 04:34:26 10° E 04:37:13 15° NE 04:40:00 10° NNE visible
25 Jan 4.4 06:10:46 10° SSE 06:15:59 69° ENE 06:21:15 10° N visible
25 Jan 6.6 20:09:17 11° SSW 20:09:17 11° SSW 20:09:27 10° SSW visible
26 Jan 5.2 05:43:55 10° SE 05:48:52 43° ENE 05:53:51 10° N visible
26 Jan 6.3 19:41:31 14° S 19:41:31 14° S 19:42:10 10° S visible
27 Jan 6.0 05:17:25 10° ESE 05:21:51 28° ENE 05:26:19 10° N visible
27 Jan 4.3 06:56:07 10° S 07:01:16 55° W 07:06:28 10° NNW visible
27 Jan 6.1 19:13:45 14° SSE 19:13:45 14° SSE 19:14:31 10° SSE visible
28 Jan 6.6 04:51:20 10° E 04:54:57 19° NE 04:58:34 10° NNE visible
28 Jan 4.1 06:28:42 10° SSE 06:33:58 88° WSW 06:39:18 10° NNW visible
28 Jan 6.1 18:45:58 12° SE 18:45:58 12° SE 18:46:25 10° SSE visible
28 Jan 6.5 20:26:51 12° SW 20:26:51 12° SW 20:27:17 10° SSW visible
29 Jan 6.9 04:25:54 10° ENE 04:28:08 13° NE 04:30:23 10° NNE visible
29 Jan 4.7 06:01:38 10° SSE 06:06:47 59° ENE 06:12:00 10° N visible
29 Jan 6.1 19:59:03 17° SSW 19:59:03 17° SSW 20:00:15 10° SSW visible
30 Jan 5.5 05:34:54 10° SE 05:39:43 38° ENE 05:44:34 10° N visible
30 Jan 5.8 19:31:14 20° S 19:31:14 20° S 19:32:51 10° S visible
31 Jan 6.2 05:08:31 10° ESE 05:12:44 25° ENE 05:16:58 10° N visible
31 Jan 4.1 06:46:47 10° S 06:52:01 64° WSW 06:57:18 10° NNW visible
31 Jan 5.7 19:03:23 19° SSE 19:03:23 19° SSE 19:05:04 10° SSE visible
31 Jan 6.5 20:44:15 14° SW 20:44:15 14° SW 20:44:59 10° SW visible
01 Feb 6.7 04:42:36 10° E 04:45:51 17° NE 04:49:07 10° NNE visible
01 Feb 4.2 06:19:29 10° SSE 06:24:46 81° ENE 06:30:05 10° NNW visible
01 Feb 5.8 18:35:32 15° SE 18:35:32 15° SE 18:36:47 10° SE visible
01 Feb 5.9 20:16:24 22° SSW 20:16:24 22° SSW 20:18:10 10° SSW visible
01 Feb7.521:57:16WSW21:57:16WSW21:46:21Nvisible
02 Feb 7.0 04:17:34 10° ENE 04:19:04 11° NE 04:20:35 10° NNE visible
02 Feb 5.0 05:52:32 10° SE 05:57:37 51° ENE 06:02:44 10° N visible
02 Feb 5.3 19:48:30 29° S 19:48:30 29° S 19:51:01 10° S visible
02 Feb7.121:29:22WSW21:29:22WSW21:19:16Nvisible
